| time (UTC) | temp F | wind direction | speed MPH | gust MPH | rain 1hr in | rain 24hr in | rain mn in | humidity % | barometer mb |
| 20260507075930 | 76 | 156 | 3.0 | 3.0 | 0.00 | 0.00 | 0.00 | 89 | 1011.0 |
| 20260507074729 | 76 | 156 | 3.0 | 3.0 | 0.00 | 0.00 | 0.00 | 89 | 1011.0 |
| 20260507073527 | 78 | 166 | 3.0 | 3.0 | 0.00 | 0.00 | 0.00 | 85 | 1011.0 |
| 20260507072327 | 78 | 166 | 3.0 | 3.0 | 0.00 | 0.00 | 0.00 | 85 | 1013.0 |
| 20260507071126 | 78 | 166 | 3.0 | 3.0 | 0.00 | 0.00 | 0.00 | 85 | 1013.0 |
| 20260507065923 | 78 | 166 | 3.0 | 3.0 | 0.00 | 0.00 | 0.00 | 85 | 1012.0 |
| 20260507064722 | 78 | 166 | 3.0 | 3.0 | 0.00 | 0.00 | 0.00 | 85 | 1012.0 |
| 20260507063520 | 78 | 166 | 3.0 | 3.0 | 0.00 | 0.00 | 0.00 | 85 | 1012.0 |
| 20260507062320 | 78 | 166 | 3.0 | 3.0 | 0.00 | 0.00 | 0.00 | 85 | 1014.0 |
| 20260507061118 | 78 | 166 | 3.0 | 3.0 | 0.00 | 0.00 | 0.00 | 85 | 1012.0 |
| 20260507055917 | 78 | 166 | 3.0 | 3.0 | 0.00 | 0.00 | 0.00 | 85 | 1012.0 |
| 20260507054717 | 78 | 166 | 3.0 | 3.0 | 0.00 | 0.00 | 0.00 | 85 | 1012.0 |
| 20260507053513 | 78 | 166 | 3.0 | 3.0 | 0.00 | 0.00 | 0.00 | 85 | 1012.0 |
| 20260507052312 | 78 | 166 | 3.0 | 3.0 | 0.00 | 0.00 | 0.00 | 85 | 1014.0 |
| 20260507051111 | 78 | 166 | 3.0 | 3.0 | 0.00 | 0.00 | 0.00 | 85 | 1014.0 |
| 20260507045911 | 78 | 166 | 3.0 | 3.0 | 0.00 | 0.00 | 0.00 | 85 | 1012.0 |
| 20260507044710 | 78 | 166 | 3.0 | 3.0 | 0.00 | 0.00 | 0.00 | 85 | 1012.0 |
| 20260507043507 | 78 | 166 | 3.0 | 3.0 | 0.00 | 0.00 | 0.00 | 85 | 1012.0 |
| 20260507042307 | 78 | 166 | 3.0 | 3.0 | 0.00 | 0.00 | 0.00 | 85 | 1014.0 |
| 20260507041105 | 78 | 166 | 3.0 | 3.0 | 0.00 | 0.00 | 0.00 | 85 | 1014.0 |
| 20260507035903 | 78 | 166 | 3.0 | 3.0 | 0.00 | 0.00 | 0.00 | 85 | 1013.0 |
| 20260507034702 | 78 | 166 | 3.0 | 3.0 | 0.00 | 0.00 | 0.00 | 85 | 1013.0 |
| 20260507033502 | 81 | 190 | 1.0 | 5.0 | 0.00 | 0.00 | 0.00 | 79 | 1013.0 |
| 20260507032301 | 81 | 190 | 1.0 | 5.0 | 0.00 | 0.00 | 0.00 | 79 | 1014.0 |
| 20260507031100 | 81 | 190 | 1.0 | 5.0 | 0.00 | 0.00 | 0.00 | 79 | 1014.0 |
| 20260507025858 | 81 | 190 | 1.0 | 5.0 | 0.00 | 0.00 | 0.00 | 79 | 1012.0 |
| 20260507024655 | 81 | 190 | 1.0 | 5.0 | 0.00 | 0.00 | 0.00 | 79 | 1012.0 |
| 20260507023454 | 81 | 190 | 1.0 | 5.0 | 0.00 | 0.00 | 0.00 | 79 | 1012.0 |
| 20260507022253 | 81 | 190 | 1.0 | 5.0 | 0.00 | 0.00 | 0.00 | 79 | 1013.0 |
| 20260507021053 | 81 | 190 | 1.0 | 5.0 | 0.00 | 0.00 | 0.00 | 79 | 1013.0 |
| 20260507015850 | 81 | 190 | 1.0 | 5.0 | 0.00 | 0.00 | 0.00 | 79 | 1012.0 |
| 20260507014649 | 81 | 190 | 1.0 | 5.0 | 0.00 | 0.00 | 0.00 | 79 | 1012.0 |
| 20260507013449 | 81 | 190 | 1.0 | 5.0 | 0.00 | 0.00 | 0.00 | 79 | 1012.0 |
| 20260507012249 | 81 | 190 | 1.0 | 5.0 | 0.00 | 0.00 | 0.00 | 79 | 1012.0 |
| 20260507011048 | 81 | 190 | 1.0 | 5.0 | 0.00 | 0.00 | 0.00 | 79 | 1012.0 |
| 20260507005847 | 81 | 190 | 1.0 | 5.0 | 0.00 | 0.00 | 0.00 | 79 | 1011.0 |
| 20260507004647 | 81 | 190 | 2.0 | 5.0 | 0.00 | 0.00 | 0.00 | 79 | 1011.0 |
| 20260507003446 | 83 | 167 | 1.0 | 1.0 | 0.00 | 0.00 | 0.00 | 79 | 1010.0 |
| 20260507002246 | 83 | 167 | 1.0 | 1.0 | 0.00 | 0.00 | 0.00 | 79 | 1010.0 |
| 20260507001045 | 83 | 167 | 1.0 | 1.0 | 0.00 | 0.00 | 0.00 | 79 | 1010.0 |
| 20260506235844 | 83 | 167 | 1.0 | 1.0 | 0.00 | 0.00 | 0.00 | 79 | 1009.0 |
| 20260506234644 | 83 | 167 | 1.0 | 2.0 | 0.00 | 0.00 | 0.00 | 79 | 1009.0 |
| 20260506233438 | 85 | 163 | 1.0 | 3.0 | 0.00 | 0.00 | 0.00 | 80 | 1009.0 |
| 20260506232238 | 85 | 163 | 1.0 | 3.0 | 0.00 | 0.00 | 0.00 | 80 | 1009.0 |
| 20260506231036 | 85 | 163 | 1.0 | 3.0 | 0.00 | 0.00 | 0.00 | 80 | 1009.0 |
| 20260506225836 | 85 | 163 | 1.0 | 3.0 | 0.00 | 0.00 | 0.00 | 80 | 1008.0 |
| 20260506224635 | 85 | 163 | 1.0 | 3.0 | 0.00 | 0.00 | 0.00 | 80 | 1008.0 |
| 20260506223434 | 90 | 236 | 3.0 | 7.0 | 0.00 | 0.00 | 0.00 | 72 | 1008.0 |
| 20260506222229 | 90 | 236 | 3.0 | 7.0 | 0.00 | 0.00 | 0.00 | 72 | 1008.0 |
| 20260506221018 | 90 | 236 | 3.0 | 7.0 | 0.00 | 0.00 | 0.00 | 72 | 1008.0 |
| 20260506215817 | 90 | 236 | 3.0 | 7.0 | 0.00 | 0.00 | 0.00 | 72 | 1007.0 |
| 20260506214617 | 90 | 236 | 3.0 | 7.0 | 0.00 | 0.00 | 0.00 | 72 | 1007.0 |
| 20260506213415 | 90 | 236 | 3.0 | 7.0 | 0.00 | 0.00 | 0.00 | 72 | 1007.0 |
| 20260506212215 | 90 | 236 | 3.0 | 7.0 | 0.00 | 0.00 | 0.00 | 72 | 1007.0 |
| 20260506211014 | 90 | 236 | 3.0 | 7.0 | 0.00 | 0.00 | 0.00 | 72 | 1007.0 |
| 20260506205813 | 90 | 236 | 3.0 | 7.0 | 0.00 | 0.00 | 0.00 | 72 | 1007.0 |
| 20260506204612 | 90 | 236 | 3.0 | 7.0 | 0.00 | 0.00 | 0.00 | 72 | 1007.0 |
| 20260506203410 | 90 | 236 | 3.0 | 7.0 | 0.00 | 0.00 | 0.00 | 72 | 1007.0 |
| 20260506202210 | 90 | 236 | 3.0 | 7.0 | 0.00 | 0.00 | 0.00 | 72 | 1008.0 |
| 20260506201007 | 90 | 236 | 3.0 | 7.0 | 0.00 | 0.00 | 0.00 | 72 | 1008.0 |
| 20260506195804 | 90 | 236 | 3.0 | 7.0 | 0.00 | 0.00 | 0.00 | 72 | 1007.0 |
| 20260506194604 | 90 | 236 | 3.0 | 7.0 | 0.00 | 0.00 | 0.00 | 72 | 1007.0 |
| 20260506193403 | 90 | 236 | 3.0 | 7.0 | 0.00 | 0.00 | 0.00 | 72 | 1009.0 |
| 20260506192202 | 90 | 236 | 3.0 | 7.0 | 0.00 | 0.00 | 0.00 | 72 | 1009.0 |
| 20260506190959 | 90 | 236 | 3.0 | 7.0 | 0.00 | 0.00 | 0.00 | 72 | 1009.0 |
| 20260506185758 | 90 | 236 | 3.0 | 7.0 | 0.00 | 0.00 | 0.00 | 72 | 1008.0 |
| 20260506184557 | 90 | 236 | 3.0 | 7.0 | 0.00 | 0.00 | 0.00 | 72 | 1008.0 |
| 20260506183357 | 90 | 236 | 3.0 | 7.0 | 0.00 | 0.00 | 0.00 | 72 | 1008.0 |
| 20260506182155 | 90 | 236 | 3.0 | 7.0 | 0.00 | 0.00 | 0.00 | 72 | 1010.0 |
| 20260506180955 | 90 | 236 | 3.0 | 7.0 | 0.00 | 0.00 | 0.00 | 72 | 1010.0 |
| 20260506175754 | 90 | 236 | 3.0 | 7.0 | 0.00 | 0.00 | 0.00 | 72 | 1009.0 |
| 20260506174554 | 90 | 236 | 3.0 | 7.0 | 0.00 | 0.00 | 0.00 | 72 | 1009.0 |
| 20260506173353 | 85 | 201 | 4.0 | 5.0 | 0.00 | 0.00 | 0.00 | 84 | 1009.0 |
| 20260506172153 | 85 | 201 | 4.0 | 5.0 | 0.00 | 0.00 | 0.00 | 84 | 1010.0 |
| 20260506170952 | 85 | 201 | 4.0 | 5.0 | 0.00 | 0.00 | 0.00 | 84 | 1010.0 |
| 20260506165752 | 85 | 201 | 4.0 | 5.0 | 0.00 | 0.00 | 0.00 | 84 | 1010.0 |
| 20260506164551 | 85 | 201 | 4.0 | 5.0 | 0.00 | 0.00 | 0.00 | 84 | 1011.0 |
| 20260506163348 | 85 | 201 | 4.0 | 5.0 | 0.00 | 0.00 | 0.00 | 84 | 1011.0 |
| 20260506162147 | 85 | 201 | 4.0 | 5.0 | 0.00 | 0.00 | 0.00 | 84 | 1013.0 |
| 20260506160947 | 85 | 201 | 4.0 | 5.0 | 0.00 | 0.00 | 0.00 | 84 | 1013.0 |
| 20260506155745 | 85 | 201 | 4.0 | 5.0 | 0.00 | 0.00 | 0.00 | 84 | 1012.0 |
| 20260506154543 | 85 | 201 | 4.0 | 5.0 | 0.00 | 0.00 | 0.00 | 84 | 1012.0 |
| 20260506153341 | 85 | 201 | 4.0 | 5.0 | 0.00 | 0.00 | 0.00 | 84 | 1013.0 |
| 20260506152140 | 85 | 201 | 4.0 | 5.0 | 0.00 | 0.00 | 0.00 | 84 | 1013.0 |
| 20260506150939 | 85 | 201 | 4.0 | 5.0 | 0.00 | 0.00 | 0.00 | 84 | 1013.0 |
| 20260506145738 | 85 | 201 | 4.0 | 5.0 | 0.00 | 0.00 | 0.00 | 84 | 1013.0 |
| 20260506144538 | 85 | 201 | 4.0 | 6.0 | 0.00 | 0.00 | 0.00 | 84 | 1013.0 |
| 20260506143337 | 77 | 149 | 3.0 | 1.0 | 0.00 | 0.00 | 0.00 | 94 | 1013.0 |
| 20260506142137 | 77 | 149 | 3.0 | 1.0 | 0.00 | 0.00 | 0.00 | 94 | 1013.0 |
| 20260506140936 | 77 | 149 | 3.0 | 1.0 | 0.00 | 0.00 | 0.00 | 94 | 1013.0 |
| 20260506135736 | 77 | 149 | 3.0 | 1.0 | 0.00 | 0.00 | 0.00 | 94 | 1013.0 |
| 20260506134534 | 77 | 149 | 3.0 | 1.0 | 0.00 | 0.00 | 0.00 | 94 | 1013.0 |
| 20260506133333 | 77 | 149 | 3.0 | 1.0 | 0.00 | 0.00 | 0.00 | 94 | 1013.0 |
| 20260506132131 | 77 | 149 | 3.0 | 1.0 | 0.00 | 0.00 | 0.00 | 94 | 1013.0 |
| 20260506130931 | 77 | 149 | 3.0 | 1.0 | 0.00 | 0.00 | 0.00 | 94 | 1013.0 |
| 20260506125730 | 77 | 149 | 3.0 | 1.0 | 0.00 | 0.00 | 0.00 | 94 | 1013.0 |
| 20260506124529 | 77 | 149 | 3.0 | 1.0 | 0.00 | 0.00 | 0.00 | 94 | 1014.0 |
| 20260506123329 | 77 | 149 | 3.0 | 1.0 | 0.00 | 0.00 | 0.00 | 94 | 1014.0 |
| 20260506122128 | 77 | 149 | 3.0 | 1.0 | 0.00 | 0.00 | 0.00 | 94 | 1014.0 |
| 20260506120928 | 77 | 149 | 3.0 | 1.0 | 0.00 | 0.00 | 0.00 | 94 | 1014.0 |
| 20260506115727 | 77 | 149 | 3.0 | 1.0 | 0.00 | 0.00 | 0.00 | 94 | 1013.0 |
| 20260506114526 | 77 | 149 | 3.0 | 1.0 | 0.00 | 0.00 | 0.00 | 94 | 1013.0 |
| 20260506113326 | 77 | 149 | 3.0 | 1.0 | 0.00 | 0.00 | 0.00 | 94 | 1013.0 |
| 20260506112123 | 77 | 149 | 3.0 | 1.0 | 0.00 | 0.00 | 0.00 | 94 | 1014.0 |
| 20260506110922 | 77 | 149 | 3.0 | 1.0 | 0.00 | 0.00 | 0.00 | 94 | 1014.0 |
| 20260506105722 | 77 | 149 | 3.0 | 1.0 | 0.00 | 0.00 | 0.00 | 94 | 1013.0 |
| 20260506104521 | 77 | 149 | 3.0 | 1.0 | 0.00 | 0.00 | 0.00 | 94 | 1012.0 |
| 20260506103320 | 77 | 149 | 3.0 | 1.0 | 0.00 | 0.00 | 0.00 | 94 | 1012.0 |
| 20260506102119 | 77 | 149 | 3.0 | 1.0 | 0.00 | 0.00 | 0.00 | 94 | 1013.0 |
| 20260506100919 | 77 | 149 | 3.0 | 1.0 | 0.00 | 0.00 | 0.00 | 94 | 1013.0 |
| 20260506095718 | 77 | 149 | 3.0 | 1.0 | 0.00 | 0.00 | 0.00 | 94 | 1012.0 |
| 20260506094516 | 77 | 149 | 3.0 | 1.0 | 0.00 | 0.00 | 0.00 | 94 | 1012.0 |
| 20260506093315 | 77 | 149 | 3.0 | 1.0 | 0.00 | 0.00 | 0.00 | 94 | 1012.0 |
| 20260506092115 | 77 | 149 | 3.0 | 1.0 | 0.00 | 0.00 | 0.00 | 94 | 1013.0 |
| 20260506090913 | 77 | 149 | 3.0 | 1.0 | 0.00 | 0.00 | 0.00 | 94 | 1013.0 |
| 20260506085712 | 77 | 149 | 3.0 | 1.0 | 0.00 | 0.00 | 0.00 | 94 | 1011.0 |
| 20260506084512 | 77 | 149 | 3.0 | 1.0 | 0.00 | 0.00 | 0.00 | 94 | 1011.0 |
| 20260506083310 | 77 | 149 | 3.0 | 1.0 | 0.00 | 0.00 | 0.00 | 94 | 1011.0 |
| 20260506082109 | 77 | 149 | 3.0 | 1.0 | 0.00 | 0.00 | 0.00 | 94 | 1012.0 |
| 20260506080908 | 77 | 149 | 3.0 | 1.0 | 0.00 | 0.00 | 0.00 | 94 | 1012.0 |